SB KEPS @ AMSAT  $ORB24166.1
2Line Orbital Elements 24166.AMSAT
QST de W1STR
AMSAT Orbital Elements for Amateur Satellites in TLE Format
  From Orbital Analysis Office
  New England Sci-Tech STEM Education Center
  Natick, MA June 14, 2024
  To all radio amateurs
These element sets describe the orbits of various satellites 
in use by the amateur radio community. For details see:
www.amsat.org/keplerian-elements-formats/
A daily update of element sets is available at:
www.amsat.org/tle/daily-bulletin.txt
or without bulletin text:
www.amsat.org/tle/dailytle.txt
AO-07
1 07530U 74089B   24165.64804102 -.00000034  00000-0  77070-4 0  9999
2 07530 101.9773 160.2632 0012636  90.9622  22.7188 12.53676100268590
UO-11
1 14781U 84021B   24165.52264070  .00002151  00000-0  24755-3 0  9995
2 14781  97.7043 134.9041 0009802  89.3979 270.8360 14.86721762147944
AO-16
1 20439U 90005D   24165.64473681  .00000253  00000-0  10882-3 0  9991
2 20439  98.8990 170.6706 0009982 217.6060 258.7004 14.33389680796823
LO-19
1 20442U 90005G   24165.52446468  .00000279  00000-0  11765-3 0  9994
2 20442  98.8819 155.6955 0011399 191.0023 169.0913 14.33550296797316
AO-27
1 22825U 93061C   24165.62078475  .00000198  00000-0  93424-4 0  9999
2 22825  98.7884 218.3591 0009571  90.0816 270.1463 14.30504744602104
IO-26
1 22826U 93061D   24165.60029829  .00000225  00000-0  10313-3 0  9993
2 22826  98.7832 218.2021 0010048  76.8805 283.3498 14.30886980602385
FO-29
1 24278U 96046B   24165.42226587 -.00000014  00000-0  22055-4 0  9996
2 24278  98.5804 100.5720 0349812 197.8542 161.0050 13.53190137373927
NOAA-15
1 25338U 98030A   24165.58956148  .00000329  00000-0  15416-3 0  9999
2 25338  98.5682 192.7916 0009765 342.0048  18.0785 14.26601876356671
GO-32
1 25397U 98043D   24165.51347331  .00000156  00000-0  87652-4 0  9999
2 25397  98.9211 132.1813 0001817 133.0835 227.0495 14.24055597346898
ISS
1 25544U 98067A   24165.66806182  .00015924  00000-0  28090-3 0  9998
2 25544  51.6406 332.7035 0008244 293.8140 153.2995 15.50527850458001
NO-44
1 26931U 01043C   24165.57289423  .00000308  00000-0  14779-3 0  9999
2 26931  67.0517 340.8907 0007042 279.5882  80.4423 14.31250779185435
SO-50
1 27607U 02058C   24165.54915112  .00001565  00000-0  22894-3 0  9998
2 27607  64.5545 232.7310 0026864 114.7541 245.6363 14.79010663155782
CO-55
1 27844U 03031E   24165.57553907  .00000541  00000-0  25822-3 0  9993
2 27844  98.6762 172.6551 0010394 148.9293 211.2502 14.23273814 87277
CO-57
1 27848U 03031J   24165.50825238  .00000452  00000-0  22104-3 0  9990
2 27848  98.6793 172.8357 0009940 164.3617 195.7870 14.22713609 87014
RS-22
1 27939U 03042A   24165.61993905  .00001865  00000-0  31945-3 0  9994
2 27939  98.2908 321.7633 0013147  73.9127  66.1667 14.69967484107624
NOAA-18
1 28654U 05018A   24165.52653500  .00000297  00000-0  18183-3 0  9995
2 28654  98.8743 242.5217 0015253  75.7605 284.5260 14.13229945982652
CO-58
1 28895U 05043F   24165.35468858  .00002366  00000-0  42338-3 0  9999
2 28895  98.2013 301.1763 0015728  14.3715 345.7934 14.67724228993898
CO-65
1 32785U 08021C   24165.47354208  .00005070  00000-0  44799-3 0  9995
2 32785  97.7549 130.8318 0010609 349.6592  10.4410 14.96748365874929
AAUSAT2
1 32788U 08021F   24165.48283889  .00018456  00000-0  92475-3 0  9991
2 32788  97.5941 145.7115 0006339 159.3334 200.8156 15.17401660877766
CO-66
1 32791U 08021J   24165.40806423  .00010174  00000-0  74338-3 0  9999
2 32791  97.6890 136.5979 0004355 335.9665  24.1357 15.03831697875956
RS-30
1 32953U 08025A   24165.53062996  .00000044  00000-0  24465-3 0  9997
2 32953  82.5028  91.7608 0020444 110.5619 249.7657 12.43142445728532
PRISM
1 33493U 09002B   24165.10176791  .00022036  00000-0  10440-2 0  9997
2 33493  98.2047 212.3731 0011233 255.7099 104.2886 15.19289799838424
NOAA-19
1 33591U 09005A   24165.61899641  .00000258  00000-0  16249-3 0  9997
2 33591  99.0470 221.3805 0012862 304.6151  55.3807 14.13025692790863
SRMSAT
1 37841U 11058D   24165.36343916  .00000514  00000-0  13652-3 0  9991
2 37841  19.9700 179.9108 0011973  53.1863 336.3300 14.11125521654021
HRBE
1 37855U 11061F   24165.05678374  .00500721  98996-4  16882-2 0  9992
2 37855 101.6832 349.8573 0030878 325.7039  34.2223 15.89133258692407
RS-40
1 38735U 12041C   24165.55456876  .00000042  00000-0  23515-3 0  9993
2 38735  82.4747 172.1483 0016359 223.4334 136.5457 12.42610031538727
ZACUBE-1
1 39417U 13066B   24165.42424943  .00004984  00000-0  51998-3 0  9990
2 39417  97.7337 121.4780 0050966 170.8640 189.3517 14.89222436571027
Delfi-N3xt
1 39428U 13066N   24165.27456534  .00007069  00000-0  90093-3 0  9992
2 39428  97.8385  83.7112 0103002 101.1536 260.1276 14.78092167565514
GOMX-1
1 39430U 13066Q   24165.63251130  .00001903  00000-0  32310-3 0  9999
2 39430  97.7329  40.2313 0138459 264.1538  94.3868 14.64186511562345
LO-74
1 39440U 13066AA  24165.60182120  .00004204  00000-0  49874-3 0  9999
2 39440  97.8126 109.3483 0068015 286.3961  72.9784 14.83385967567805
AO-73
1 39444U 13066AE  24165.45763161  .00005457  00000-0  53036-3 0  9992
2 39444  97.7192 124.6246 0049096 151.3732 209.0199 14.92078877569559
SPROUT
1 39770U 14029E   24165.38124370  .00145455  00000-0  28218-2 0  9995
2 39770  98.0081 317.5791 0008009 224.0786 135.9824 15.47092974547065
DTUSAT-2
1 40030U 14033W   24165.61101523  .00006303  00000-0  53304-3 0  9995
2 40030  98.0065 117.9557 0011035 155.0861 205.0895 14.98380907542164
EO-80
1 40032U 14033Y   24165.57982326  .00005257  00000-0  44499-3 0  9992
2 40032  98.0062 117.9366 0009713 158.6641 201.4987 14.98431724542139
XW-2C
1 40906U 15049H   24165.55387357  .00025361  00000-0  58673-3 0  9998
2 40906  97.4781 182.2685 0005794 323.2204  36.8645 15.42448482483919
XW-2D
1 40907U 15049J   24165.59014694  .00041728  00000-0  74713-3 0  9992
2 40907  97.4714 184.7804 0003646 299.9198  60.1690 15.49853540484149
LILACSAT-2
1 40908U 15049K   24165.58874109  .00008681  00000-0  33636-3 0  9997
2 40908  97.5236 174.2713 0012235  12.7849 347.3697 15.26334382482947
XW-2B
1 40911U 15049N   24165.61472520  .00038938  00000-0  71618-3 0  9996
2 40911  97.4689 184.9083 0003595 303.4623  56.6284 15.49100377484011
IO-86
1 40931U 15052B   24161.65716409  .00001690  00000-0  14136-3 0  9996
2 40931   6.0007  46.5134 0013068 333.1018  26.8433 14.77870516470342
ChubuSat-2
1 41338U 16012B   24165.37700942  .00005597  00000-0  34587-3 0  9995
2 41338  31.0025  55.3361 0011199 200.6798 159.3387 15.08301175457023
ChubuSat-3
1 41339U 16012C   24165.38487018  .00004973  00000-0  31158-3 0  9991
2 41339  31.0085  53.7434 0011227 205.1406 154.8685 15.07725614456916
Horyu-4
1 41340U 16012D   24164.92598059  .00012960  00000-0  64427-3 0  9990
2 41340  31.0031   3.3796 0010066 293.7595  66.1989 15.16371478457506
Lapan A3
1 41603U 16040E   24165.56797993  .00003632  00000-0  14685-3 0  9999
2 41603  97.1417 179.4516 0013857 111.8047 248.4667 15.25243999442673
Pratham
1 41783U 16059A   24165.30590948  .00001370  00000-0  26278-3 0  9999
2 41783  97.8359 184.8249 0033318  35.3235 325.0167 14.64899768411979
CAS-2T
1 41847U 16066G   24165.55887673  .00002408  00000-0  35931-3 0  9998
2 41847  98.4599 236.8858 0354068 188.1157 171.4211 14.41248397398973
CAS-4B
1 42759U 17034B   24165.58237372  .00014043  00000-0  50868-3 0  9999
2 42759  43.0157 246.9324 0012870 321.3350  38.6580 15.28164838386850
CAS-4A
1 42761U 17034D   24165.58392516  .00013678  00000-0  49434-3 0  9994
2 42761  43.0200 245.2733 0011604 330.4880  29.5316 15.28272105386854
Aalto 1
1 42775U 17036L   24165.58038561  .00089094  00000-0  81002-3 0  9990
2 42775  97.1028 195.1670 0006676 183.6660 176.4554 15.67659811388547
URSA MAIOR
1 42776U 17036M   24165.57583079  .00424263  72948-4  11497-2 0  9994
2 42776  97.0926 199.7354 0008513 194.3060 165.7976 15.94171246388830
Max Valier Sat
1 42778U 17036P   24165.56799367  .00444010  80585-4  11699-2 0  9996
2 42778  97.0784 203.8047 0006860 190.4546 169.6589 15.94725946389015
D-SAT
1 42794U 17036AF  24165.53395819  .00004547  00000-0  31920-3 0  9992
2 42794  97.4849 147.5655 0111041 159.9109 200.6539 15.00704305380173
TechnoSat
1 42829U 17042E   24165.57205856  .00003735  00000-0  33202-3 0  9996
2 42829  97.3838 346.8440 0013860  87.9614 272.3195 14.96604189376639
AO-91
1 43017U 17073E   24165.63779458  .00007034  00000-0  43886-3 0  9996
2 43017  97.5780  41.2526 0209171 305.8777  52.3179 14.93416996355136
TianYi 2
1 43155U 18008A   24165.53333583  .00106046  00000-0  12606-2 0  9990
2 43155  97.2346 219.4608 0006283 116.4424 243.7479 15.60777935354336
Zhou Enlai
1 43156U 18008B   24165.26411853  .00260814  00000-0  16940-2 0  9997
2 43156  97.2352 221.2238 0003882 171.3597 188.7736 15.75221678354335
TianYi 6
1 43158U 18008D   24165.57599213  .00050241  00000-0  98097-3 0  9995
2 43158  97.2544 214.1618 0008111 115.1593 245.0499 15.47291533353917
S-Net D
1 43186U 18014G   24165.46189375  .00005067  00000-0  36510-3 0  9993
2 43186  97.5921  67.3671 0011292  29.5230 330.6632 15.04562857347946
S-Net B
1 43187U 18014H   24165.46414446  .00005116  00000-0  36860-3 0  9997
2 43187  97.5929  67.3186 0011879  24.0913 336.0866 15.04556015347943
S-Net A
1 43188U 18014J   24165.46305186  .00005120  00000-0  36878-3 0  9992
2 43188  97.5933  67.4300 0011826  25.0871 335.0928 15.04564113347940
S-Net C
1 43189U 18014K   24165.20025826  .00005637  00000-0  40553-3 0  9993
2 43189  97.5947  67.1185 0013302  16.8889 343.2777 15.04556019346456
Ten-Koh
1 43677U 18084G   24165.46266422  .00002689  00000-0  24466-3 0  9998
2 43677  98.0636 318.8848 0014730  34.4834 325.7339 14.96027120306162
PO-101
1 43678U 18084H   24165.59410540  .00002607  00000-0  24204-3 0  9995
2 43678  98.0720 323.4769 0010112  50.1048 310.1059 14.95297003306382
QO-100
1 43700U 18090A   24165.51044719  .00000153  00000-0  00000-0 0  9990
2 43700   0.0181 323.3705 0001949 159.0755 349.4785  1.00275985 20328
MinXSS-2
1 43758U 18099A   24165.12228516  .00011361  00000-0  71976-3 0  9994
2 43758  97.5536 227.5424 0015635 335.1569  24.8905 15.09015547302170
